Regional Weather Roundup
Issued by NWS

Home | Current Version | Previous Version | Graphics & Text | Print | Product List | Glossary On
Versions: 1 2 3 4 5 6 7 8 9 10 11 12 13 14 15 16 17 18 19 20 21 22 23 24 25 26 27 28 29 30 31 32 33 34 35 36 37 38 39 40 41 42 43 44 45 46 47 48 49 50
000
ASUS43 KIND 281610
RWRIN

WEATHER ROUNDUP FOR INDIANA
NATIONAL WEATHER SERVICE INDIANAPOLIS IN
1200 PM EDT FRI JUL 28 2017

NOTE: "FAIR" INDICATES FEW OR NO CLOUDS BELOW 12,000 FEET WITH NO
SIGNIFICANT WEATHER AND/OR OBSTRUCTIONS TO VISIBILITY.

* - STATION DOES NOT REPORT WEATHER SUCH AS PRECIPITATION OR FOG.

+ - STATION NOT QUALITY CONTROLLED BY THE NATIONAL WEATHER SERVICE.
    USE DATA WITH CAUTION...ESPECIALLY DEWPOINT AND RELATIVE
    HUMIDITY OBSERVATIONS.

INZ001>003-010>013-019-020-281700-
NORTHWEST INDIANA

CITY           SKY/WX    TMP DP  RH WIND       PRES   REMARKS
GARY /AIRPORT/ MOSUNNY   75  63  64 N14       30.00R
KNOX *+        MOSUNNY   73  61  64 NE8       29.97R
LA PORTE +     SUNNY     75  62  65 NE5       29.98S
MICHIGAN CITY+ SUNNY     73  64  73 N8        29.99R
MONTICELLO +   CLOUDY    71  64  78 NE8       29.94S
RENSSELAER +   MOSUNNY   73  64  73 NE10      29.96S
VALPARAISO     SUNNY     79  64  60 E9        29.98R

$$

LMZ046-743>745-281700-
SOUTHERN LAKE MICHIGAN

STATION/POSITION TIME  TEMP    WIND        PRES    WAVE
                       AIR SEA DIR/SP/G            HT
                 (UTC) (F)     (DEG/KT/KT) (MB)    (FT)
BURNS HARBOR     1540   70      30/ 14/ 15 1015.9R
MICHIGAN CITY    1540   69      10/ 15/ 16   N/A
5NW MICH CITY    1600   70 74   30/ 12/ 16   N/A     4

$$

INZ004-005-014>016-021>024-281700-
NORTH CENTRAL INDIANA

CITY           SKY/WX    TMP DP  RH WIND       PRES   REMARKS
ELKHART        SUNNY     75  59  57 NE9G16    29.97S
GOSHEN         MOSUNNY   74  60  61 NE8       29.96F
LOGANSPORT +   CLOUDY    70  61  73 NE7       29.95F
PERU/GRISSOM   CLOUDY    72  63  73 NE12      29.93S
ROCHESTER +    MOSUNNY   75  64  69 N10       29.96S
SOUTH BEND     SUNNY     75  63  66 N9        29.98R
WARSAW +       MOSUNNY   72  63  73 NE8       29.96S

$$

INZ006>009-017-018-025>027-281700-
NORTHEAST INDIANA

CITY           SKY/WX    TMP DP  RH WIND       PRES   REMARKS
AUBURN +       CLOUDY    70  61  73 N6        29.96S
FORT WAYNE     CLOUDY    71  62  73 N9        29.95S
HUNTINGTON +   CLOUDY    69  65  84 NE6       29.95S
KENDALLVILLE + CLOUDY    71  62  75 NE6       29.96S

$$

INZ028-029-035-036-043>045-051>053-281700-
WEST CENTRAL INDIANA

CITY           SKY/WX    TMP DP  RH WIND       PRES   REMARKS
GREENCASTLE +  PTSUNNY   77  68  73 NE10      29.90S
LAFAYETTE      CLOUDY    74  66  76 NE10      29.93R
TERRE HAUTE    CLOUDY    78  72  81 N7        29.88S

$$

INZ030>032-037>040-046>048-054>057-064-065-281700-
CENTRAL INDIANA

CITY           SKY/WX    TMP DP  RH WIND       PRES   REMARKS
ANDERSON       PTSUNNY   73  66  78 MISG      29.93R
CP ATTERBURY + PTSUNNY   79  68  69 NE13      29.88S
COLUMBUS       CLOUDY    75  68  78 N12       29.87R
FRANKFORT +    CLOUDY    77  69  76 NE10      29.94S
GREENWOOD *+   SUNNY    N/A N/A N/A N10       29.90R
INDIANAPOLIS   MOSUNNY   78  66  66 NE13      29.89R
-EAGLE CREEK   MOSUNNY   79  67  66 N14       29.89S
KOKOMO +       CLOUDY    72  65  78 NE8       29.95R
MARION +       CLOUDY    70  64  83 NE9       29.94S
MT COMFORT *+  PTSUNNY   77  68  73 NE14      29.91R
SHELBYVILLE    MOSUNNY   80  66  62 N10       29.88S
ZIONSVILLE +   PTSUNNY   73  68  84 NE8       29.93S

$$

INZ033-034-041-042-049-050-058-059-281700-
EAST CENTRAL INDIANA

CITY           SKY/WX    TMP DP  RH WIND       PRES   REMARKS
MUNCIE         PTSUNNY   75  65  70 NE8       29.92S
RICHMOND +     PTSUNNY   75  68  78 NE8       29.90S

$$

INZ060-061-067>069-081>083-085>088-281700-
SOUTHWEST INDIANA

CITY           SKY/WX    TMP DP  RH WIND       PRES   REMARKS
EVANSVILLE     CLOUDY    77  72  84 N8        29.85S
HUNTINGBURG *+ CLOUDY    80  75  84 NW9       29.84S

$$

INZ062-063-066-070>080-084-089>092-281700-
SOUTH CENTRAL AND SOUTHEAST INDIANA

CITY           SKY/WX    TMP DP  RH WIND       PRES   REMARKS
BEDFORD +      CLOUDY    77  72  83 N5        29.84S
BLOOMINGTON    PTSUNNY   78  69  73 NE10      29.87S
MADISON *+     CLOUDY    73  70  88 NE9       29.87R
NORTH VERNON + CLOUDY    75  70  83 NE8       29.86S
SEYMOUR +      CLOUDY    77  70  78 NE7       29.84

$$





USA.gov is the U.S. government's official web portal to all federal, state and local government web resources and services.